Sturgeon Bay, WI

11:27 AM CST on February 25, 2017 (GMT -0600)
Door County Cherryland

Weather History for KSUE - April, 2014

Change the Weather History Date:

Friday, April 4, 2014

  Actual Average Record
Temperature  
Mean Temperature 30 °F -  
Max Temperature 33 °F 45 °F 72 °F (1921)
Min Temperature 26 °F 28 °F 2 °F (1923)
Degree Days  
Heating Degree Days 36    
Moisture  
Dew Point 27 °F    
Average Humidity 84    
Maximum Humidity 93    
Minimum Humidity 70    
Precipitation  
Precipitation 0.30 in - - ()
Sea Level Pressure  
Sea Level Pressure 29.61 in    
Wind  
Wind Speed 11 mph (North)    
Max Wind Speed 25 mph    
Max Gust Speed 33 mph    
Visibility 7 miles    
Events      
Averages and records for this station are not official NWS values.
T = Trace of Precipitation, MM = Missing Value Source: NWS Daily Summary

Daily Weather History Graph

Daily Weather History Graph

Search for Another Location

Airport or City:

Trip Planner

Search our weather history database for the weather conditions in past years. The results will help you decide how hot, cold, wet, or windy it might be!

Date:

Astronomy

Apr. 04, 2014 Rise Set
Actual Time 6:24 AM CDT 7:21 PM CDT
Civil Twilight 5:55 AM CDT 7:50 PM CDT
Nautical Twilight 5:19 AM CDT 8:26 PM CDT
Astronomical Twilight 4:42 AM CDT 9:03 PM CDT
Moon 9:32 AM CDT (4/4) No Moon Set
Length of Visible Light 13h 55m
Length of Day
12h 56m
Waxing Crescent, 25% of the Moon is Illuminated
Apr 4
Waxing Crescent
Apr 7
First Quarter
Apr 15
Full
Apr 22
Last Quarter
Apr 29
New

Hourly Weather History & Observations

Time (CDT) Temp. Windchill Dew Point Humidity Pressure Visibility Wind Dir Wind Speed Gust Speed Precip Events Conditions
12:15 AM 33.8 °F 25.3 °F 26.6 °F 75% 29.78 in 10.0 mi ENE 11.5 mph 18.4 mph N/A   Overcast
12:35 AM 33.8 °F 26.4 °F 26.6 °F 75% 29.78 in 10.0 mi ENE 9.2 mph 16.1 mph N/A   Overcast
12:55 AM 33.8 °F 25.8 °F 24.8 °F 70% 29.75 in 10.0 mi ENE 10.4 mph 16.1 mph N/A   Overcast
1:15 AM 33.8 °F 24.3 °F 24.8 °F 70% 29.70 in 10.0 mi ENE 13.8 mph 23.0 mph N/A   Overcast
1:35 AM 33.8 °F 25.3 °F 26.6 °F 75% 29.72 in 10.0 mi ENE 11.5 mph 20.7 mph N/A   Overcast
1:55 AM 33.8 °F 26.4 °F 26.6 °F 75% 29.72 in 10.0 mi ENE 9.2 mph - N/A   Overcast
2:15 AM 33.8 °F 27.0 °F 26.6 °F 75% 29.73 in 10.0 mi ENE 8.1 mph - N/A   Overcast
2:35 AM 33.8 °F 27.0 °F 24.8 °F 70% 29.71 in 10.0 mi ENE 8.1 mph - N/A   Overcast
2:55 AM 33.8 °F 27.0 °F 24.8 °F 70% 29.71 in 10.0 mi NE 8.1 mph - N/A   Overcast
3:15 AM 33.8 °F 29.6 °F 26.6 °F 75% 29.70 in 9.0 mi ENE 4.6 mph - N/A   Overcast
3:35 AM 32.0 °F 23.6 °F 26.6 °F 80% 29.65 in 7.0 mi East 10.4 mph - N/A   Overcast
3:55 AM 32.0 °F 24.8 °F 26.6 °F 80% 29.64 in 10.0 mi East 8.1 mph - N/A   Overcast
4:15 AM 32.0 °F 26.4 °F 26.6 °F 80% 29.64 in 9.0 mi ENE 5.8 mph - N/A   Overcast
4:35 AM 32.0 °F 25.6 °F 28.4 °F 87% 29.62 in 10.0 mi ENE 6.9 mph - 0.01 in   Overcast
4:55 AM 32.0 °F 23.6 °F 28.4 °F 87% 29.57 in 10.0 mi ENE 10.4 mph - 0.01 in   Overcast
5:15 AM 32.0 °F 23.6 °F 28.4 °F 87% 29.55 in 10.0 mi East 10.4 mph 16.1 mph N/A   Overcast
5:35 AM 32.0 °F 25.6 °F 28.4 °F 87% 29.57 in 10.0 mi East 6.9 mph - N/A   Overcast
5:55 AM 32.0 °F 25.6 °F 28.4 °F 87% 29.56 in 10.0 mi ENE 6.9 mph - N/A   Overcast
6:15 AM 32.0 °F 27.5 °F 28.4 °F 87% 29.56 in 5.0 mi ENE 4.6 mph - N/A   Overcast
6:35 AM 32.0 °F 26.4 °F 28.4 °F 87% 29.54 in 2.5 mi NE 5.8 mph - N/A   Overcast
6:55 AM 32.0 °F 24.2 °F 28.4 °F 87% 29.51 in 2.0 mi NE 9.2 mph - 0.01 in   Overcast
7:15 AM 32.0 °F 25.6 °F 28.4 °F 87% 29.52 in 3.0 mi NE 6.9 mph - N/A   Overcast
7:35 AM 33.8 °F 28.6 °F 28.4 °F 81% 29.53 in 2.0 mi NE 5.8 mph - 0.01 in   Overcast
7:55 AM 33.8 °F 27.7 °F 30.2 °F 87% 29.52 in 1.8 mi NNE 6.9 mph - 0.09 in   Overcast
8:15 AM 33.8 °F 29.6 °F 30.2 °F 87% 29.54 in 3.0 mi NNE 4.6 mph - 0.06 in   Overcast
8:35 AM 33.8 °F 26.4 °F 30.2 °F 87% 29.52 in 3.0 mi North 9.2 mph - 0.09 in   Overcast
8:55 AM 33.8 °F 26.4 °F 30.2 °F 87% 29.52 in 2.5 mi North 9.2 mph - 0.11 in   Overcast
9:15 AM 32.0 °F 24.8 °F 30.2 °F 93% 29.51 in 2.0 mi NNE 8.1 mph - N/A   Overcast
9:35 AM 33.8 °F 27.7 °F 30.2 °F 87% 29.50 in 5.0 mi NE 6.9 mph - N/A   Overcast
9:55 AM 33.8 °F 24.8 °F 30.2 °F 87% 29.46 in 10.0 mi NNE 12.7 mph - 0.02 in   Overcast
10:15 AM 33.8 °F 24.8 °F 30.2 °F 87% 29.45 in 10.0 mi NNE 12.7 mph 16.1 mph 0.01 in   Overcast
10:35 AM 33.8 °F 27.0 °F 30.2 °F 87% 29.48 in 10.0 mi ENE 8.1 mph - 0.02 in   Overcast
10:55 AM 33.8 °F 26.4 °F 30.2 °F 87% 29.45 in 10.0 mi NE 9.2 mph - 0.02 in   Overcast
11:15 AM 33.8 °F 26.4 °F 30.2 °F 87% 29.45 in 10.0 mi NE 9.2 mph - 0.01 in   Overcast
11:35 AM 33.8 °F 29.6 °F 30.2 °F 87% 29.46 in 10.0 mi NE 4.6 mph - 0.01 in   Overcast
11:55 AM 33.8 °F 27.7 °F 30.2 °F 87% 29.47 in 10.0 mi NE 6.9 mph - 0.02 in   Overcast
12:15 PM 33.8 °F 25.8 °F 30.2 °F 87% 29.45 in 10.0 mi NE 10.4 mph - N/A   Overcast
12:35 PM 33.8 °F 25.3 °F 30.2 °F 87% 29.45 in 9.0 mi NNE 11.5 mph - N/A   Overcast
12:55 PM 33.8 °F 26.4 °F 30.2 °F 87% 29.44 in 9.0 mi North 9.2 mph - N/A   Overcast
1:15 PM 33.8 °F 25.8 °F 30.2 °F 87% 29.43 in 9.0 mi North 10.4 mph - N/A   Overcast
1:55 PM 33.8 °F 25.3 °F 28.4 °F 81% 29.44 in 10.0 mi NNW 11.5 mph - N/A   Overcast
2:15 PM 32.0 °F 21.6 °F 28.4 °F 87% 29.44 in 9.0 mi NNW 15.0 mph - N/A   Overcast
2:35 PM 32.0 °F 20.8 °F 28.4 °F 87% 29.46 in 10.0 mi NNW 17.3 mph 21.9 mph N/A   Overcast
2:55 PM 32.0 °F 22.1 °F 28.4 °F 87% 29.47 in 3.0 mi NW 13.8 mph - N/A   Overcast
3:15 PM 32.0 °F 21.2 °F 28.4 °F 87% 29.48 in 2.5 mi NNW 16.1 mph 21.9 mph N/A   Overcast
3:35 PM 32.0 °F 23.0 °F 30.2 °F 93% 29.49 in 3.0 mi WNW 11.5 mph - N/A   Overcast
3:55 PM 32.0 °F 20.1 °F 28.4 °F 87% 29.50 in 3.0 mi NW 19.6 mph 26.5 mph N/A   Overcast
4:15 PM 32.0 °F 19.8 °F 28.4 °F 87% 29.52 in 6.0 mi NNW 20.7 mph 26.5 mph 0.01 in   Overcast
4:35 PM 32.0 °F 20.1 °F 28.4 °F 87% 29.53 in 10.0 mi NW 19.6 mph 24.2 mph 0.01 in   Overcast
4:55 PM 32.0 °F 19.5 °F 28.4 °F 87% 29.54 in 3.0 mi NNW 21.9 mph 27.6 mph 0.01 in   Overcast
5:15 PM 32.0 °F 19.5 °F 28.4 °F 87% 29.56 in 9.0 mi NW 21.9 mph 31.1 mph N/A   Overcast
5:35 PM 32.0 °F 20.1 °F 28.4 °F 87% 29.58 in 3.0 mi NNW 19.6 mph 27.6 mph N/A   Overcast
5:55 PM 30.2 °F 17.4 °F 28.4 °F 93% 29.60 in 2.0 mi NW 20.7 mph 31.1 mph N/A   Overcast
6:15 PM 30.2 °F 16.2 °F 26.6 °F 86% 29.61 in 1.0 mi NNW 25.3 mph 33.4 mph 0.01 in   Overcast
6:35 PM 30.2 °F 17.4 °F 26.6 °F 86% 29.63 in 2.5 mi NNW 20.7 mph 28.8 mph 0.01 in   Overcast
6:55 PM 30.2 °F 18.5 °F 24.8 °F 80% 29.66 in 7.0 mi NW 17.3 mph 26.5 mph 0.01 in   Overcast
7:15 PM 28.4 °F 15.4 °F 24.8 °F 86% 29.68 in 1.8 mi NNW 19.6 mph 26.5 mph N/A   Overcast
7:35 PM 28.4 °F 17.0 °F 24.8 °F 86% 29.69 in 5.0 mi NW 15.0 mph 21.9 mph N/A   Overcast
7:55 PM 28.4 °F 15.8 °F 24.8 °F 86% 29.71 in 5.0 mi NW 18.4 mph 26.5 mph N/A   Mostly Cloudy
8:15 PM 28.4 °F 15.8 °F 24.8 °F 86% 29.73 in 3.0 mi NW 18.4 mph 24.2 mph N/A   Overcast
8:35 PM 28.4 °F 16.6 °F 23.0 °F 80% 29.75 in 6.0 mi NNW 16.1 mph 25.3 mph N/A   Overcast
8:55 PM 28.4 °F 14.7 °F 24.8 °F 86% 29.76 in 3.0 mi NNW 21.9 mph 27.6 mph N/A   Overcast
9:15 PM 28.4 °F 16.2 °F 24.8 °F 86% 29.78 in 4.0 mi NW 17.3 mph 23.0 mph N/A   Overcast
9:35 PM 26.6 °F 15.7 °F 23.0 °F 86% 29.80 in 5.0 mi NW 12.7 mph 23.0 mph N/A   Overcast
9:55 PM 26.6 °F 15.2 °F 23.0 °F 86% 29.80 in 8.0 mi NW 13.8 mph - N/A   Overcast
10:15 PM 28.4 °F 17.0 °F 21.2 °F 74% 29.82 in 10.0 mi NW 15.0 mph 23.0 mph N/A   Overcast
10:35 PM 28.4 °F 17.0 °F 21.2 °F 74% 29.83 in 10.0 mi NW 15.0 mph 23.0 mph N/A   Overcast
10:55 PM 28.4 °F 18.0 °F 23.0 °F 80% 29.84 in 10.0 mi WNW 12.7 mph - N/A   Overcast
11:15 PM 28.4 °F 15.8 °F 23.0 °F 80% 29.85 in 10.0 mi NW 18.4 mph 23.0 mph N/A   Overcast
11:35 PM 28.4 °F 18.0 °F 23.0 °F 80% 29.86 in 10.0 mi NW 12.7 mph - N/A   Overcast
11:55 PM 28.4 °F 18.5 °F 23.0 °F 80% 29.87 in 10.0 mi NW 11.5 mph 18.4 mph N/A   Overcast